Regional Weather Roundup
Issued by NWS

Home | Current Version | Previous Version | Text Only | Print | Product List | Glossary On
Versions: 1 2 3 4 5 6 7 8 9 10 11 12 13 14 15 16 17 18 19 20 21 22 23 24 25 26 27
000
ASPQ40 PGUM 100610
RWRPQ
WEATHER ROUNDUP FOR THE MARIANAS AND MICRONESIA
NATIONAL WEATHER SERVICE TIYAN GU
400 PM CHST SAT DEC 10 2022

GUZ001>004-100700-
MARIANA ISLANDS-

CITY           SKY/WX    TMP DP  RH WIND       PRES   REMARKS
GUAM AIRPORT   MOSUNNY   84  75  74 E10       29.77R HX  92
ANDERSEN AFB   PTSUNNY   82  73  74 SE10      29.78R
ROTA AIRPORT   MOSUNNY   84  75  74 E15       29.74R HX  92
TINIAN AP      MOSUNNY   84  73  70 SE12        N/A  HX  91
SAIPAN AP      MOSUNNY   82  75  78 SE5       29.77F

$$

PMZ161-100700-
REPUBLIC OF PALAU-

CITY           SKY/WX    TMP DP  RH WIND       PRES   REMARKS
KOROR AP       NOT AVBL
KOROR WSO      NOT AVBL

$$

PMZ171>174-100700-
FEDERATED STATES OF MICRONESIA-

CITY           SKY/WX    TMP DP  RH WIND       PRES   REMARKS
YAP AIRPORT    PTSUNNY   86  79  79 CALM      29.72R HX  99
CHUUK AP       MOSUNNY   88  77  70 VRB6      29.68S HX 100
POHNPEI AP     NOT AVBL
POHNPEI WSO    PTSUNNY   88  77  70 E8        29.73R HX 100
KOSRAE AP      NOT AVBL

$$

PMZ181-100700-
REPUBLIC OF THE MARSHALL ISLANDS-

CITY           SKY/WX    TMP DP  RH WIND       PRES   REMARKS
KWAJALEIN AP   PTCLDY    84  75  74 MISG      29.77R HAZE    HX  92
MAJURO AP      NOT AVBL
MAJURO WSO     PTCLDY    84  75  74 E6        29.74R HX  92

$$




USA.gov is the U.S. government's official web portal to all federal, state and local government web resources and services.